Weather History for Custer, SD

Change the Weather History Date:

Wednesday, August 27, 2014

  Actual Average Record
Temperature  
Mean Temperature 63 °F 62 °F  
Max Temperature 73 °F 76 °F 93 °F (2010)
Min Temperature 53 °F 48 °F 34 °F (1965)
Degree Days  
Heating Degree Days 2 4  
Month to date heating degree days 34 73  
Since 1 June heating degree days 386 354  
Since 1 July heating degree days 113 134  
Cooling Degree Days 0 1  
Month to date cooling degree days 44 48  
Year to date cooling degree days 134 155  
Since 1 June cooling degree days 130 154  
Growing Degree Days 12 (Base 50)    
Moisture  
Dew Point 55 °F    
Average Humidity 76    
Maximum Humidity 93    
Minimum Humidity 59    
Precipitation  
Precipitation 0.12 in 0.07 in 3.50 in (1933)
Month to date precipitation 1.88 1.84  
Year to date precipitation 14.49 14.61  
Sea Level Pressure  
Sea Level Pressure 30.09 in    
Wind  
Wind Speed 6 mph (ENE)    
Max Wind Speed 13 mph    
Max Gust Speed 17 mph    
Visibility 10 miles    
Events Rain , Thunderstorm    
T = Trace of Precipitation, MM = Missing Value Source: NWS Daily Summary

Daily Weather History Graph

Daily Weather History Graph

Search for Another Location

Airport:

Trip Planner

Search our weather history database for the weather conditions in past years. The results will help you decide how hot, cold, wet, or windy it might be!

Date:

Astronomy

Aug. 27, 2014 Rise Set
Actual Time 6:12 AM MDT 7:38 PM MDT
Civil Twilight 5:42 AM MDT 8:08 PM MDT
Nautical Twilight 5:06 AM MDT 8:44 PM MDT
Astronomical Twilight 4:27 AM MDT 9:22 PM MDT
Moon 8:16 AM MDT (8/27) 8:25 PM MDT (8/27)
Length of Visible Light 14h 26m
Length of Day
13h 26m
Waxing Crescent, 4% of the Moon is Illuminated
Aug 27
Waxing Crescent
Sep 2
First Quarter
Sep 8
Full
Sep 15
Last Quarter
Sep 24
New

Hourly Weather History & Observations

Time (MDT) Temp. Dew Point Humidity Pressure Visibility Wind Dir Wind Speed Gust Speed Precip Events Conditions
12:53 AM 57.9 °F 54.0 °F 87% 30.09 in 10.0 mi WNW 3.5 mph - N/A   Overcast
1:53 AM 57.9 °F 54.0 °F 87% 30.07 in 10.0 mi West 3.5 mph - N/A   Mostly Cloudy
2:53 AM 57.9 °F 54.0 °F 87% 30.05 in 10.0 mi ESE 6.9 mph - 0.00 in   Mostly Cloudy
3:53 AM 57.0 °F 53.1 °F 87% 30.04 in 10.0 mi NE 6.9 mph - N/A   Scattered Clouds
4:53 AM 57.0 °F 52.0 °F 83% 30.05 in 10.0 mi NE 4.6 mph - N/A   Scattered Clouds
5:53 AM 55.0 °F 52.0 °F 89% 30.08 in 10.0 mi North 3.5 mph - N/A   Clear
6:53 AM 54.0 °F 50.0 °F 86% 30.10 in 10.0 mi NNE 3.5 mph - N/A   Clear
7:53 AM 61.0 °F 52.0 °F 72% 30.09 in 10.0 mi ENE 5.8 mph - N/A   Clear
8:53 AM 64.0 °F 52.0 °F 65% 30.07 in 10.0 mi NE 9.2 mph - N/A   Clear
9:53 AM 68.0 °F 54.0 °F 61% 30.04 in 10.0 mi NE 9.2 mph - N/A   Clear
10:53 AM 70.0 °F 55.0 °F 59% 30.04 in 10.0 mi ENE 5.8 mph 16.1 mph N/A   Clear
11:53 AM 68.0 °F 57.0 °F 68% 30.05 in 10.0 mi East 11.5 mph - N/A   Overcast
1:26 PM 64.9 °F 57.0 °F 75% 30.20 in 10.0 mi East 10.4 mph - N/A   Overcast
1:37 PM 64.0 °F 57.0 °F 78% 30.20 in 10.0 mi East 9.2 mph - N/A   Overcast
1:53 PM 64.0 °F 57.0 °F 78% 30.04 in 10.0 mi East 5.8 mph - N/A   Overcast
2:00 PM 63.0 °F 57.0 °F 81% 30.20 in 10.0 mi ESE 6.9 mph - N/A   Overcast
2:48 PM 64.4 °F 57.2 °F 77% 30.20 in 10.0 mi East 8.1 mph - 0.00 in   Overcast
2:49 PM 64.9 °F 57.0 °F 75% 30.03 in 10.0 mi East 8.1 mph - 0.00 in   Overcast
3:53 PM 64.9 °F 55.9 °F 73% 30.02 in 10.0 mi East 4.6 mph - N/A   Overcast
4:00 PM 64.4 °F 55.4 °F 73% 30.17 in 10.0 mi ENE 5.8 mph - N/A   Overcast
4:07 PM 64.0 °F 57.0 °F 78% 30.17 in 9.0 mi East 4.6 mph - 0.00 in Rain , Thunderstorm Light Rain
4:19 PM 63.0 °F 57.0 °F 81% 30.18 in 7.0 mi East 6.9 mph - 0.00 in Rain , Thunderstorm Light Rain
4:25 PM 62.1 °F 57.9 °F 86% 30.18 in 5.0 mi ESE 6.9 mph - 0.01 in Rain , Thunderstorm Light Thunderstorms and Rain
4:46 PM 61.0 °F 57.9 °F 90% 30.18 in 10.0 mi East 6.9 mph - 0.01 in Rain Light Rain
4:53 PM 61.0 °F 57.9 °F 90% 30.03 in 6.0 mi East 6.9 mph - 0.02 in Rain Rain
5:35 PM 60.1 °F 57.9 °F 93% 30.17 in 6.0 mi ENE 4.6 mph - 0.08 in Rain Light Rain
5:53 PM 61.0 °F 57.9 °F 90% 30.02 in 10.0 mi NE 4.6 mph - 0.09 in Rain Light Rain
6:05 PM 61.0 °F 57.9 °F 90% 30.16 in 10.0 mi NNE 3.5 mph - 0.00 in Rain Light Rain
6:53 PM 60.1 °F 57.0 °F 90% 30.03 in 10.0 mi NE 4.6 mph - 0.00 in Rain Light Rain
7:53 PM 59.0 °F 55.9 °F 90% 30.03 in 10.0 mi NNE 5.8 mph - 0.01 in   Overcast
8:53 PM 57.9 °F 55.0 °F 90% 30.02 in 10.0 mi NNE 4.6 mph - 0.00 in   Overcast
9:53 PM 57.0 °F 54.0 °F 89% 30.00 in 10.0 mi NNE 4.6 mph - N/A   Overcast
10:53 PM 57.0 °F 55.0 °F 93% 29.97 in 10.0 mi North 3.5 mph - N/A   Overcast
11:53 PM 57.9 °F 55.0 °F 90% 29.98 in 10.0 mi North 3.5 mph - N/A   Overcast